Time,TemperatureF,DewpointF,PressureIn,WindDirection,WindDirectionDegrees,WindSpeedMPH,WindSpeedGustMPH,Humidity,HourlyPrecipIn,Conditions,Clouds,dailyrainin,SoftwareType,DateUTC
2013-03-08 00:07:00,48.2,40.0,30.03,ESE,112,0.0,-999.0,73,-99.99,,,0.00,Acu-Link.com,2013-03-08 05:07:00,
2013-03-08 00:22:00,48.0,39.8,30.03,East,90,0.0,-999.0,73,-99.99,,,0.00,Acu-Link.com,2013-03-08 05:22:00,
2013-03-08 00:38:00,48.0,40.1,30.03,ENE,67,0.0,-999.0,74,-99.99,,,0.00,Acu-Link.com,2013-03-08 05:38:00,
2013-03-08 00:53:00,48.2,40.3,30.03,ESE,112,0.0,-999.0,74,-99.99,,,0.00,Acu-Link.com,2013-03-08 05:53:00,
2013-03-08 01:08:00,48.2,40.3,30.02,West,270,0.0,-999.0,74,-99.99,,,0.00,Acu-Link.com,2013-03-08 06:08:00,
2013-03-08 01:23:00,47.5,40.3,30.03,SSE,157,0.0,-999.0,76,-99.99,,,0.00,Acu-Link.com,2013-03-08 06:23:00,
2013-03-08 01:39:00,47.8,40.6,30.02,ENE,67,0.0,-999.0,76,-99.99,,,0.00,Acu-Link.com,2013-03-08 06:39:00,
2013-03-08 01:54:00,47.5,40.7,30.02,West,270,1.1,-999.0,77,-99.99,,,0.00,Acu-Link.com,2013-03-08 06:54:00,
2013-03-08 02:09:00,46.8,40.6,30.02,SSE,157,0.0,-999.0,79,-99.99,,,0.00,Acu-Link.com,2013-03-08 07:09:00,
2013-03-08 02:24:00,46.8,40.6,30.02,West,270,0.0,-999.0,79,-99.99,,,0.00,Acu-Link.com,2013-03-08 07:24:00,
2013-03-08 02:40:00,45.9,40.7,30.01,ESE,112,0.0,-999.0,82,-99.99,,,0.00,Acu-Link.com,2013-03-08 07:40:00,
2013-03-08 02:55:00,45.9,40.4,30.01,ESE,112,0.0,-999.0,81,-99.99,,,0.00,Acu-Link.com,2013-03-08 07:55:00,
2013-03-08 03:10:00,45.3,40.4,30.01,East,90,0.0,-999.0,83,-99.99,,,0.00,Acu-Link.com,2013-03-08 08:10:00,
2013-03-08 03:26:00,45.5,41.0,30.01,East,90,0.0,-999.0,84,-99.99,,,0.00,Acu-Link.com,2013-03-08 08:26:00,
2013-03-08 03:41:00,45.5,41.3,30.01,ESE,112,0.0,-999.0,85,-99.99,,,0.00,Acu-Link.com,2013-03-08 08:41:00,
2013-03-08 03:56:00,45.5,41.3,30.00,West,270,0.0,-999.0,85,-99.99,,,0.00,Acu-Link.com,2013-03-08 08:56:00,
2013-03-08 04:12:00,45.3,41.1,30.00,SE,135,0.0,-999.0,85,-99.99,,,0.00,Acu-Link.com,2013-03-08 09:12:00,
2013-03-08 04:27:00,45.3,41.4,30.00,NNE,22,1.1,-999.0,86,-99.99,,,0.00,Acu-Link.com,2013-03-08 09:27:00,
2013-03-08 04:42:00,45.0,41.4,30.00,ENE,67,0.0,-999.0,87,-99.99,,,0.00,Acu-Link.com,2013-03-08 09:42:00,
2013-03-08 04:57:00,44.8,41.2,30.01,SE,135,0.0,-999.0,87,-99.99,,,0.00,Acu-Link.com,2013-03-08 09:57:00,
2013-03-08 05:12:00,45.0,41.4,30.01,East,90,0.0,-999.0,87,-99.99,,,0.00,Acu-Link.com,2013-03-08 10:12:00,
2013-03-08 05:28:00,44.4,40.8,30.02,ESE,112,0.0,-999.0,87,-99.99,,,0.00,Acu-Link.com,2013-03-08 10:28:00,
2013-03-08 05:43:00,43.9,40.3,30.02,NNW,337,1.7,-999.0,87,-99.99,,,0.00,Acu-Link.com,2013-03-08 10:43:00,
2013-03-08 05:59:00,44.1,40.5,30.03,ENE,67,0.0,-999.0,87,-99.99,,,0.00,Acu-Link.com,2013-03-08 10:59:00,
2013-03-08 06:14:00,44.1,40.5,30.02,SE,135,0.0,-999.0,87,-99.99,,,0.00,Acu-Link.com,2013-03-08 11:14:00,
2013-03-08 06:29:00,43.7,40.4,30.03,ESE,112,0.0,-999.0,88,-99.99,,,0.00,Acu-Link.com,2013-03-08 11:29:00,
2013-03-08 06:45:00,43.7,40.7,30.03,SSE,157,0.0,-999.0,89,-99.99,,,0.00,Acu-Link.com,2013-03-08 11:45:00,
2013-03-08 07:00:00,43.9,40.6,30.03,NW,315,0.0,-999.0,88,-99.99,,,0.00,Acu-Link.com,2013-03-08 12:00:00,
2013-03-08 07:15:00,44.8,40.9,30.04,WNW,292,0.0,-999.0,86,-99.99,,,0.00,Acu-Link.com,2013-03-08 12:15:00,
2013-03-08 07:30:00,46.2,41.9,30.05,East,90,0.0,-999.0,85,-99.99,,,0.00,Acu-Link.com,2013-03-08 12:30:00,
2013-03-08 07:46:00,51.1,43.8,30.06,SE,135,0.0,-999.0,76,-99.99,,,0.00,Acu-Link.com,2013-03-08 12:46:00,
2013-03-08 08:01:00,55.0,44.6,30.06,NNW,337,0.0,-999.0,68,-99.99,,,0.00,Acu-Link.com,2013-03-08 13:01:00,
2013-03-08 08:16:00,53.4,45.3,30.07,NNW,337,0.0,-999.0,74,-99.99,,,0.00,Acu-Link.com,2013-03-08 13:16:00,
2013-03-08 08:32:00,56.1,46.5,30.07,North,0,0.0,-999.0,70,-99.99,,,0.00,Acu-Link.com,2013-03-08 13:32:00,
2013-03-08 08:47:00,58.5,47.6,30.07,NNW,337,0.0,-999.0,67,-99.99,,,0.00,Acu-Link.com,2013-03-08 13:47:00,
2013-03-08 09:02:00,59.2,47.0,30.08,ESE,112,1.7,-999.0,64,-99.99,,,0.00,Acu-Link.com,2013-03-08 14:02:00,
2013-03-08 09:17:00,62.6,48.1,30.07,NNW,337,0.0,-999.0,59,-99.99,,,0.00,Acu-Link.com,2013-03-08 14:17:00,
2013-03-08 09:33:00,62.8,46.9,30.07,WNW,292,1.7,-999.0,56,-99.99,,,0.00,Acu-Link.com,2013-03-08 14:33:00,
2013-03-08 09:48:00,64.6,46.6,30.07,SE,135,3.2,-999.0,52,-99.99,,,0.00,Acu-Link.com,2013-03-08 14:48:00,
2013-03-08 10:03:00,64.6,45.0,30.07,NW,315,2.2,-999.0,49,-99.99,,,0.00,Acu-Link.com,2013-03-08 15:03:00,
2013-03-08 10:18:00,67.1,43.2,30.07,NNW,337,1.7,-999.0,42,-99.99,,,0.00,Acu-Link.com,2013-03-08 15:18:00,
2013-03-08 10:34:00,69.6,44.2,30.06,South,180,1.1,-999.0,40,-99.99,,,0.00,Acu-Link.com,2013-03-08 15:34:00,
2013-03-08 10:49:00,69.8,42.3,30.06,WNW,292,2.2,-999.0,37,-99.99,,,0.00,Acu-Link.com,2013-03-08 15:49:00,
2013-03-08 11:04:00,71.1,44.2,30.06,North,0,1.1,-999.0,38,-99.99,,,0.00,Acu-Link.com,2013-03-08 16:04:00,
2013-03-08 11:20:00,70.7,43.1,30.05,East,90,1.1,-999.0,37,-99.99,,,0.00,Acu-Link.com,2013-03-08 16:20:00,
2013-03-08 11:35:00,72.5,43.3,30.05,SSE,157,3.7,-999.0,35,-99.99,,,0.00,Acu-Link.com,2013-03-08 16:35:00,
2013-03-08 11:50:00,74.5,45.0,30.05,North,0,1.1,-999.0,35,-99.99,,,0.00,Acu-Link.com,2013-03-08 16:50:00,
2013-03-08 12:05:00,72.0,42.8,30.04,ESE,112,0.0,-999.0,35,-99.99,,,0.00,Acu-Link.com,2013-03-08 17:05:00,
2013-03-08 12:20:00,75.7,45.3,30.03,NE,45,0.0,-999.0,34,-99.99,,,0.00,Acu-Link.com,2013-03-08 17:20:00,
2013-03-08 12:36:00,73.8,41.3,30.02,East,90,1.7,-999.0,31,-99.99,,,0.00,Acu-Link.com,2013-03-08 17:36:00,
2013-03-08 12:51:00,75.7,42.1,30.01,NW,315,2.7,-999.0,30,-99.99,,,0.00,Acu-Link.com,2013-03-08 17:51:00,
2013-03-08 13:06:00,75.7,42.1,30.01,WSW,247,1.7,-999.0,30,-99.99,,,0.00,Acu-Link.com,2013-03-08 18:06:00,
2013-03-08 13:21:00,75.0,42.3,29.99,SSE,157,2.7,-999.0,31,-99.99,,,0.00,Acu-Link.com,2013-03-08 18:21:00,
2013-03-08 13:36:00,76.1,41.5,29.97,South,180,2.2,-999.0,29,-99.99,,,0.00,Acu-Link.com,2013-03-08 18:36:00,
2013-03-08 13:52:00,77.4,42.6,29.96,WNW,292,1.7,-999.0,29,-99.99,,,0.00,Acu-Link.com,2013-03-08 18:52:00,
2013-03-08 14:07:00,78.6,41.8,29.94,South,180,1.1,-999.0,27,-99.99,,,0.00,Acu-Link.com,2013-03-08 19:07:00,
2013-03-08 14:22:00,78.3,41.6,29.93,NW,315,2.7,-999.0,27,-99.99,,,0.00,Acu-Link.com,2013-03-08 19:22:00,
2013-03-08 14:38:00,77.7,40.1,29.92,West,270,1.1,-999.0,26,-99.99,,,0.00,Acu-Link.com,2013-03-08 19:38:00,
2013-03-08 14:53:00,79.0,40.2,29.91,NW,315,1.7,-999.0,25,-99.99,,,0.00,Acu-Link.com,2013-03-08 19:53:00,
2013-03-08 15:08:00,79.5,41.6,29.91,ESE,112,1.1,-999.0,26,-99.99,,,0.00,Acu-Link.com,2013-03-08 20:08:00,
2013-03-08 15:24:00,79.2,38.2,29.90,West,270,1.7,-999.0,23,-99.99,,,0.00,Acu-Link.com,2013-03-08 20:24:00,
2013-03-08 15:39:00,78.8,35.6,29.90,NNE,22,1.7,-999.0,21,-99.99,,,0.00,Acu-Link.com,2013-03-08 20:39:00,
2013-03-08 15:54:00,78.4,34.0,29.90,SSE,157,1.7,-999.0,20,-99.99,,,0.00,Acu-Link.com,2013-03-08 20:54:00,
2013-03-08 16:09:00,77.7,32.1,29.92,ESE,112,1.7,-999.0,19,-99.99,,,0.00,Acu-Link.com,2013-03-08 21:09:00,
2013-03-08 16:24:00,78.3,32.6,29.91,SSE,157,2.2,-999.0,19,-99.99,,,0.00,Acu-Link.com,2013-03-08 21:24:00,
2013-03-08 16:40:00,77.4,34.4,29.90,North,0,1.1,-999.0,21,-99.99,,,0.00,Acu-Link.com,2013-03-08 21:40:00,
2013-03-08 16:55:00,75.7,35.3,29.90,SSE,157,1.7,-999.0,23,-99.99,,,0.00,Acu-Link.com,2013-03-08 21:55:00,
2013-03-08 17:10:00,75.7,36.3,29.90,West,270,1.7,-999.0,24,-99.99,,,0.00,Acu-Link.com,2013-03-08 22:10:00,
2013-03-08 17:26:00,77.5,37.9,29.90,NW,315,1.7,-999.0,24,-99.99,,,0.00,Acu-Link.com,2013-03-08 22:26:00,
2013-03-08 17:41:00,76.5,34.8,29.91,South,180,0.0,-999.0,22,-99.99,,,0.00,Acu-Link.com,2013-03-08 22:41:00,
2013-03-08 17:56:00,76.6,34.9,29.91,SW,225,0.0,-999.0,22,-99.99,,,0.00,Acu-Link.com,2013-03-08 22:56:00,
2013-03-08 18:11:00,74.1,36.0,29.92,NNW,337,0.0,-999.0,25,-99.99,,,0.00,Acu-Link.com,2013-03-08 23:11:00,
2013-03-08 18:27:00,71.2,37.3,29.93,SE,135,0.0,-999.0,29,-99.99,,,0.00,Acu-Link.com,2013-03-08 23:27:00,
2013-03-08 18:42:00,69.1,37.2,29.93,SSE,157,0.0,-999.0,31,-99.99,,,0.00,Acu-Link.com,2013-03-08 23:42:00,
2013-03-08 18:57:00,67.8,43.2,29.94,South,180,0.0,-999.0,41,-99.99,,,0.00,Acu-Link.com,2013-03-08 23:57:00,
2013-03-08 19:12:00,65.7,39.4,29.94,SE,135,0.0,-999.0,38,-99.99,,,0.00,Acu-Link.com,2013-03-09 00:12:00,
2013-03-08 19:28:00,64.4,38.2,29.95,WSW,247,1.1,-999.0,38,-99.99,,,0.00,Acu-Link.com,2013-03-09 00:28:00,
2013-03-08 19:43:00,62.8,38.1,29.95,SSE,157,0.0,-999.0,40,-99.99,,,0.00,Acu-Link.com,2013-03-09 00:43:00,
2013-03-08 19:58:00,62.1,47.1,29.97,SE,135,1.7,-999.0,58,-99.99,,,0.00,Acu-Link.com,2013-03-09 00:58:00,
2013-03-08 20:14:00,61.5,48.4,29.97,ESE,112,1.1,-999.0,62,-99.99,,,0.00,Acu-Link.com,2013-03-09 01:14:00,
2013-03-08 20:29:00,60.4,48.2,29.98,ESE,112,4.7,-999.0,64,-99.99,,,0.00,Acu-Link.com,2013-03-09 01:29:00,
2013-03-08 20:44:00,59.4,47.6,29.98,ESE,112,2.2,-999.0,65,-99.99,,,0.00,Acu-Link.com,2013-03-09 01:44:00,
2013-03-08 21:00:00,58.8,47.5,29.99,North,0,2.2,-999.0,66,-99.99,,,0.00,Acu-Link.com,2013-03-09 02:00:00,
2013-03-08 21:15:00,58.1,47.2,29.99,WNW,292,0.0,-999.0,67,-99.99,,,0.00,Acu-Link.com,2013-03-09 02:15:00,
2013-03-08 21:30:00,57.2,46.7,30.00,South,180,0.0,-999.0,68,-99.99,,,0.00,Acu-Link.com,2013-03-09 02:30:00,
2013-03-08 21:45:00,56.8,46.7,30.01,ESE,112,0.0,-999.0,69,-99.99,,,0.00,Acu-Link.com,2013-03-09 02:45:00,
2013-03-08 22:01:00,56.3,46.3,30.01,ESE,112,0.0,-999.0,69,-99.99,,,0.00,Acu-Link.com,2013-03-09 03:01:00,
2013-03-08 22:16:00,55.0,45.4,30.01,ESE,112,0.0,-999.0,70,-99.99,,,0.00,Acu-Link.com,2013-03-09 03:16:00,
2013-03-08 22:31:00,54.7,45.5,30.02,ESE,112,0.0,-999.0,71,-99.99,,,0.00,Acu-Link.com,2013-03-09 03:31:00,
2013-03-08 22:46:00,54.1,45.6,30.02,ENE,67,0.0,-999.0,73,-99.99,,,0.00,Acu-Link.com,2013-03-09 03:46:00,
2013-03-08 23:02:00,53.6,46.2,30.02,SE,135,0.0,-999.0,76,-99.99,,,0.00,Acu-Link.com,2013-03-09 04:02:00,
2013-03-08 23:17:00,53.6,45.9,30.01,South,180,0.0,-999.0,75,-99.99,,,0.00,Acu-Link.com,2013-03-09 04:17:00,
2013-03-08 23:32:00,53.4,45.7,30.01,WNW,292,0.0,-999.0,75,-99.99,,,0.00,Acu-Link.com,2013-03-09 04:32:00,
2013-03-08 23:48:00,53.2,45.5,30.02,NNE,22,0.0,-999.0,75,-99.99,,,0.00,Acu-Link.com,2013-03-09 04:48:00,